This is the latest recevied weather packets stored in our database for station/object KF0EZB. If no packets are shown the sender has not sent any weather packets the latest 10 day(s).
| Time | Temp. | Humidity | Pressure | Rain* | Wind** | Luminosity | Snow |
|---|---|---|---|---|---|---|---|
| 1777210414 | 7.78° C | 99% | 1008.6 hPa | 0 mm | - | 26 W/m² | - |
| 1777210111 | 7.78° C | 99% | 1008.3 hPa | 0 mm | - | 30 W/m² | - |
| 1777209807 | 7.78° C | 99% | 1008.2 hPa | 0 mm | - | 29 W/m² | - |
| 1777209502 | 7.78° C | 99% | 1008.5 hPa | 0 mm | - | 24 W/m² | - |
| 1777209198 | 7.78° C | 99% | 1008.7 hPa | 0 mm | - | 23 W/m² | - |
| 1777208895 | 7.78° C | 99% | 1008.7 hPa | 0 mm | - | 24 W/m² | - |
| 1777208591 | 7.78° C | 99% | 1008.6 hPa | 0 mm | - | 21 W/m² | - |
| 1777208288 | 7.78° C | 99% | 1008.3 hPa | 0 mm | - | 21 W/m² | - |
| 1777207983 | 7.78° C | 99% | 1008.3 hPa | 0 mm | - | 22 W/m² | - |
| 1777207679 | 7.78° C | 98% | 1008.3 hPa | 0 mm | - | 22 W/m² | - |
| 1777207374 | 7.78° C | 98% | 1008.1 hPa | 0 mm | - | 22 W/m² | - |
| 1777207068 | 7.78° C | 98% | 1008.3 hPa | 0 mm | - | 16 W/m² | - |
| 1777206764 | 7.78° C | 98% | 1008.3 hPa | 0 mm | - | 10 W/m² | - |
| 1777206458 | 7.78° C | 98% | 1008.3 hPa | 0 mm | - | 9 W/m² | - |
| 1777206153 | 7.78° C | 98% | 1008.7 hPa | 0 mm | - | 6 W/m² | - |
| 1777205851 | 7.78° C | 98% | 1009.1 hPa | 0 mm | - | 3 W/m² | - |
| 1777205547 | 7.22° C | 98% | 1009.1 hPa | 0 mm | - | 1 W/m² | - |
| 1777205243 | 7.22° C | 98% | 1009.1 hPa | 0 mm | - | 2 W/m² | - |
| 1777204940 | 7.22° C | 98% | 1009 hPa | 0 mm | - | 1 W/m² | - |
| 1777204635 | 7.22° C | 98% | 1009.3 hPa | 0 mm | - | 0 W/m² | - |
| 1777204330 | 7.22° C | 98% | 1009.6 hPa | 0 mm | - | 0 W/m² | - |
| 1777204027 | 7.22° C | 98% | 1009.5 hPa | 0 mm | - | 0 W/m² | - |
| 1777203721 | 7.22° C | 98% | 1009.5 hPa | 0 mm | - | 0 W/m² | - |
| 1777203417 | 7.22° C | 98% | 1009.4 hPa | 0 mm | - | 0 W/m² | - |
| 1777203113 | 7.22° C | 98% | 1009.6 hPa | 0 mm | - | 0 W/m² | - |
* Rain latest hour (hover to see other rain measurements)
** Current wind speed in m/s (hover to see current wind gust speed)